N7BDR Weather Reports


Display with metric or nautical units.
time (UTC)temp
F
wind
direction
speed
MPH
gust
MPH
rain 1hr
in
rain 24hr
in
rain mn
in
humidity
%
barometer
mb
20260505185517 56 246 3.0 12.0 0.00 0.01 0.01 51 1005.0
20260505185016 56 224 4.0 12.0 0.00 0.01 0.01 52 1005.0
20260505184515 56 254 4.0 12.0 0.00 0.01 0.01 52 1005.1
20260505184021 56 228 5.0 15.0 0.00 0.01 0.01 52 1005.1
20260505182859 56 197 6.0 18.0 0.00 0.01 0.01 52 1005.0
20260505181740 56 188 4.0 18.0 0.00 0.01 0.01 52 1004.9
20260505181223 56 197 5.0 18.0 0.00 0.01 0.01 53 1004.9
20260505180723 55 261 7.0 18.0 0.00 0.01 0.01 53 1004.8
20260505180211 55 180 7.0 18.0 0.00 0.01 0.01 53 1004.7
20260505175659 55 184 6.0 16.0 0.00 0.01 0.01 55 1004.7
20260505175147 55 145 5.0 16.0 0.00 0.01 0.01 55 1004.8
20260505174040 54 173 5.0 13.0 0.00 0.01 0.01 56 1005.1
20260505172913 54 218 5.0 16.0 0.00 0.01 0.01 56 1004.9
20260505172403 54 237 5.0 16.0 0.00 0.01 0.01 56 1004.7
20260505171857 54 220 6.0 18.0 0.00 0.01 0.01 56 1004.8
20260505171349 54 254 8.0 18.0 0.00 0.01 0.01 56 1004.6
20260505165546 54 168 8.0 23.0 0.00 0.01 0.01 56 1004.6
20260505164430 54 253 6.0 20.0 0.00 0.01 0.01 57 1004.4
20260505163912 54 194 7.0 20.0 0.00 0.01 0.01 57 1004.3
20260505163359 54 208 6.0 20.0 0.00 0.01 0.01 56 1004.3
20260505162850 54 244 6.0 15.0 0.00 0.01 0.01 57 1004.3
20260505162357 55 211 7.0 17.0 0.00 0.01 0.01 57 1004.3
20260505161902 55 185 6.0 17.0 0.00 0.01 0.01 57 1004.2
20260505161409 55 203 6.0 18.0 0.00 0.01 0.01 56 1004.3
20260505160857 54 194 6.0 18.0 0.00 0.01 0.01 57 1004.0
20260505160351 54 267 6.0 18.0 0.00 0.01 0.01 57 1004.2
20260505152702 54 173 6.0 17.0 0.00 0.01 0.01 57 1003.8
20260505152159 54 189 7.0 17.0 0.00 0.01 0.01 56 1003.9
20260505151655 55 182 5.0 17.0 0.00 0.01 0.01 54 1003.9
20260505150543 55 178 5.0 12.0 0.00 0.01 0.01 53 1003.9
20260505140254 56 154 3.0 11.0 0.00 0.01 0.01 54 1003.4
20260505125022 55 213 0.0 5.0 0.00 0.01 0.01 65 1002.5
20260505124525 55 230 0.0 8.0 0.00 0.01 0.01 65 1002.5
20260505124034 55 275 0.0 8.0 0.00 0.01 0.01 65 1002.4
20260505123544 55 243 1.0 8.0 0.00 0.01 0.01 66 1002.3
20260505123053 55 232 1.0 8.0 0.00 0.01 0.01 66 1002.3
20260505122535 55 263 0.0 6.0 0.00 0.01 0.01 66 1002.2
20260505122033 55 227 0.0 6.0 0.00 0.01 0.01 65 1002.2
20260505121520 55 280 1.0 6.0 0.00 0.01 0.01 64 1002.1
20260505121029 55 266 1.0 6.0 0.00 0.01 0.01 63 1002.1
20260505120535 55 259 1.0 5.0 0.00 0.01 0.01 64 1002.1
20260505120026 55 275 1.0 5.0 0.00 0.01 0.01 63 1002.2
20260505114259 55 244 3.0 14.0 0.00 0.01 0.01 62 1002.1
20260505113758 55 239 3.0 14.0 0.00 0.01 0.01 62 1002.1
20260505113304 55 185 1.0 9.0 0.00 0.01 0.01 66 1002.1
20260505112754 55 182 1.0 9.0 0.00 0.01 0.01 67 1002.0
20260505112247 55 256 2.0 10.0 0.00 0.01 0.01 66 1002.0
20260505111755 55 224 2.0 10.0 0.00 0.01 0.01 66 1002.0
20260505110615 55 270 3.0 10.0 0.00 0.01 0.01 65 1001.9
20260505110120 55 155 2.0 9.0 0.00 0.01 0.01 65 1001.9
20260505101342 56 222 0.0 1.0 0.00 0.00 0.00 63 1002.2
20260505100834 56 277 0.0 0.0 0.00 0.00 0.00 62 1002.2
20260505100320 56 263 0.0 3.0 0.00 0.00 0.00 62 1002.2
20260505095815 57 278 0.0 0.0 0.00 0.00 0.00 63 1002.2
20260505095310 57 268 0.0 3.0 0.00 0.00 0.00 62 1002.2
20260505094149 57 272 0.0 5.0 0.00 0.00 0.00 61 1002.2
20260505093636 57 266 0.0 5.0 0.00 0.00 0.00 62 1002.2
20260505093138 57 263 0.0 4.0 0.00 0.00 0.00 62 1002.2
20260505092625 57 256 0.0 4.0 0.00 0.00 0.00 63 1002.1
20260505092115 56 258 0.0 2.0 0.00 0.00 0.00 64 1002.1
20260505091618 56 271 0.0 1.0 0.00 0.00 0.00 65 1002.1
20260505091116 56 260 0.0 0.0 0.00 0.00 0.00 64 1002.1
20260505090604 56 258 1.0 4.0 0.00 0.00 0.00 64 1002.2
20260505085437 56 256 1.0 7.0 0.00 0.00 0.00 64 1002.2
20260505084936 56 239 2.0 7.0 0.00 0.00 0.00 64 1002.2
20260505084435 56 247 2.0 7.0 0.00 0.00 0.00 63 1002.2
20260505083250 56 227 2.0 9.0 0.00 0.00 0.00 64 1002.3
20260505082751 57 257 2.0 9.0 0.00 0.00 0.00 63 1002.4
20260505082258 57 255 3.0 15.0 0.00 0.00 0.00 62 1002.3
20260505081744 57 281 4.0 15.0 0.00 0.00 0.00 62 1002.4
20260505080615 56 209 3.0 12.0 0.00 0.00 0.00 64 1002.5
20260505080057 56 270 4.0 14.0 0.00 0.00 0.00 64 1002.4
20260505075607 57 210 5.0 14.0 0.00 0.00 0.00 62 1002.5
20260505073748 58 167 5.0 16.0 0.00 0.00 0.00 54 1002.5
20260505073254 58 242 5.0 15.0 0.00 0.00 0.00 54 1002.6
20260505072755 58 175 4.0 14.0 0.00 0.00 0.00 53 1002.4
20260505072257 58 251 3.0 11.0 0.00 0.00 0.00 52 1002.4
20260505071737 58 253 4.0 16.0 0.00 0.00 0.00 51 1002.2
20260505071229 58 139 6.0 16.0 0.00 0.00 0.00 51 1002.2
20260505070116 58 288 7.0 16.0 0.00 0.00 0.00 53 1001.9
20260505065603 58 174 6.0 21.0 0.00 0.00 0.00 53 1002.0
20260505065059 58 204 7.0 21.0 0.00 0.00 0.00 53 1001.9
20260505064607 58 205 7.0 21.0 0.00 0.00 0.00 54 1001.8
20260505064116 58 216 7.0 21.0 0.00 0.00 0.00 54 1001.7
20260505063606 58 168 6.0 21.0 0.00 0.00 0.00 55 1001.8
20260505063107 58 197 8.0 21.0 0.00 0.00 0.00 54 1001.7
20260505062604 59 193 8.0 22.0 0.00 0.00 0.00 53 1001.7
20260505062056 58 199 7.0 22.0 0.00 0.00 0.00 53 1001.7
20260505060915 58 101 7.0 26.0 0.00 0.00 0.00 54 1001.7
20260505055743 59 213 9.0 26.0 0.00 0.00 0.00 54 1001.7
20260505055246 59 266 9.0 19.0 0.00 0.00 0.00 54 1001.8
20260505054749 59 234 8.0 19.0 0.00 0.00 0.00 54 1001.7
20260505054237 59 173 8.0 19.0 0.00 0.00 0.00 54 1001.8
20260505053719 59 178 8.0 19.0 0.00 0.00 0.00 54 1001.8
20260505053221 59 163 8.0 19.0 0.00 0.00 0.00 54 1001.8
20260505052730 60 179 9.0 28.0 0.00 0.00 0.00 54 1001.7
20260505051556 61 266 9.0 28.0 0.00 0.00 0.00 52 1001.7
20260505051105 61 171 8.0 28.0 0.00 0.00 0.00 51 1001.6
20260505050603 61 213 6.0 22.0 0.00 0.00 0.00 50 1001.6
20260505041411 64 181 4.0 14.0 0.00 0.00 0.00 39 1000.9
20260505040857 64 261 4.0 11.0 0.00 0.00 0.00 39 1000.8
20260505040406 64 223 4.0 11.0 0.00 0.00 0.00 40 1000.6
20260505035851 64 162 4.0 11.0 0.00 0.00 0.00 40 1000.6
20260505034108 64 275 4.0 11.0 0.00 0.00 0.00 41 1000.2
20260505033605 64 246 4.0 11.0 0.00 0.00 0.00 41 1000.2
20260505033109 64 260 4.0 11.0 0.00 0.00 0.00 41 1000.2
20260505032604 64 265 3.0 11.0 0.00 0.00 0.00 40 1000.3
20260505032054 65 277 2.0 8.0 0.00 0.00 0.00 40 1000.4
20260505030918 65 239 2.0 10.0 0.00 0.00 0.00 39 1000.2
20260505030418 65 271 3.0 12.0 0.00 0.00 0.00 39 1000.2
20260505025253 66 173 5.0 12.0 0.00 0.00 0.00 38 1000.0
20260505024758 66 208 4.0 12.0 0.00 0.00 0.00 37 999.9
20260505024257 66 232 3.0 12.0 0.00 0.00 0.00 36 999.8
20260505023116 66 229 4.0 11.0 0.00 0.00 0.00 36 999.6
20260505022559 66 140 4.0 11.0 0.00 0.00 0.00 36 999.6
20260505022102 67 180 4.0 11.0 0.00 0.00 0.00 36 999.6
20260505020948 67 309 1.0 10.0 0.00 0.00 0.00 35 999.5
20260505020447 67 227 0.0 2.0 0.00 0.00 0.00 34 999.3
20260505015340 68 253 0.0 0.0 0.00 0.00 0.00 34 999.3
20260505014823 68 255 0.0 0.0 0.00 0.00 0.00 34 999.3
20260505013646 68 265 0.0 0.0 0.00 0.00 0.00 33 999.5
20260505013139 68 270 0.0 0.0 0.00 0.00 0.00 33 999.5
20260505012630 68 261 0.0 0.0 0.00 0.00 0.00 33 999.5
20260505012128 68 274 0.0 0.0 0.00 0.00 0.00 33 999.5
20260505011009 69 275 0.0 0.0 0.00 0.00 0.00 33 999.6
20260505010451 69 119 0.0 4.0 0.00 0.00 0.00 32 999.7
20260505005959 69 306 0.0 2.0 0.00 0.00 0.00 32 999.8
20260505004227 69 327 1.0 6.0 0.00 0.00 0.00 32 999.8
20260505003735 69 83 2.0 6.0 0.00 0.00 0.00 32 999.8
20260505003227 69 96 1.0 5.0 0.00 0.00 0.00 31 999.9
20260505002714 69 60 1.0 8.0 0.00 0.00 0.00 32 999.9
20260505001546 69 141 3.0 9.0 0.00 0.00 0.00 33 1000.0
20260504235824 68 114 2.0 8.0 0.00 0.00 0.00 35 1000.2
20260504234702 68 64 3.0 9.0 0.00 0.00 0.00 34 1000.4
20260504234207 69 159 3.0 9.0 0.00 0.00 0.00 34 1000.4
20260504233656 70 83 2.0 9.0 0.00 0.00 0.00 33 1000.4
20260504233156 70 61 1.0 8.0 0.00 0.00 0.00 32 1000.5
20260504232639 71 121 1.0 8.0 0.00 0.00 0.00 32 1000.4
20260504232142 72 114 1.0 6.0 0.00 0.00 0.00 29 1000.4
20260504231626 72 239 0.0 4.0 0.00 0.00 0.00 28 1000.2
20260504231126 72 64 1.0 7.0 0.00 0.00 0.00 29 1000.2
20260504230618 71 334 1.0 7.0 0.00 0.00 0.00 31 1000.3
20260504225502 71 268 1.0 25.0 0.00 0.00 0.00 32 1000.3
20260504225008 70 199 2.0 25.0 0.00 0.00 0.00 33 1000.3
20260504224506 70 168 4.0 25.0 0.00 0.00 0.00 33 1000.2
20260504224015 71 104 4.0 25.0 0.00 0.00 0.00 32 1000.3
20260504223513 72 178 2.0 25.0 0.00 0.00 0.00 28 1000.2
20260504223020 72 215 1.0 6.0 0.00 0.00 0.00 25 1000.2
20260504221847 71 262 2.0 8.0 0.00 0.00 0.00 27 1000.1
20260504221342 71 258 3.0 8.0 0.00 0.00 0.00 27 1000.0
20260504220824 71 270 3.0 12.0 0.00 0.00 0.00 27 1000.0
20260504220305 71 249 4.0 12.0 0.00 0.00 0.00 27 1000.0
20260504215814 71 270 5.0 12.0 0.00 0.00 0.00 28 1000.0
20260504215307 71 257 5.0 10.0 0.00 0.00 0.00 27 1000.0
20260504214139 73 252 1.0 8.0 0.00 0.00 0.00 25 1000.1
20260504213621 73 262 0.0 7.0 0.00 0.00 0.00 26 1000.1
20260504213112 73 286 1.0 7.0 0.00 0.00 0.00 28 1000.1
20260504212601 73 303 1.0 7.0 0.00 0.00 0.00 28 1000.1
20260504212043 73 0 1.0 6.0 0.00 0.00 0.00 27 1000.2
20260504211527 74 310 1.0 6.0 0.00 0.00 0.00 26 1000.2
20260504211038 74 304 0.0 3.0 0.00 0.00 0.00 27 1000.3
20260504205250 73 164 0.0 6.0 0.00 0.00 0.00 28 1000.5
20260504204731 73 286 1.0 6.0 0.00 0.00 0.00 28 1000.5
20260504203542 73 320 1.0 6.0 0.00 0.00 0.00 27 1000.6
20260504203041 73 325 1.0 5.0 0.00 0.00 0.00 26 1000.6
20260504201910 73 343 2.0 9.0 0.00 0.00 0.00 27 1000.6
20260504201358 73 4 3.0 8.0 0.00 0.00 0.00 28 1000.7
20260504200854 73 285 2.0 8.0 0.00 0.00 0.00 26 1000.7
20260504195727 74 340 2.0 8.0 0.00 0.00 0.00 27 1000.9
20260504195210 74 337 2.0 7.0 0.00 0.00 0.00 27 1000.8
20260504194704 74 329 3.0 8.0 0.00 0.00 0.00 28 1000.8
20260504193525 74 328 3.0 11.0 0.00 0.00 0.00 27 1001.0
20260504193028 74 47 2.0 11.0 0.00 0.00 0.00 27 1001.1
20260504191856 74 318 2.0 11.0 0.00 0.00 0.00 28 1001.2
20260504191349 74 308 2.0 11.0 0.00 0.00 0.00 28 1001.2
20260504190839 76 230 0.0 5.0 0.00 0.00 0.00 27 1001.3